Location: Saratoga Springs
(43.0831°N, 73.7850°W)
Time: 12:14:18
(UTC-04:00)

Vanguard 3 - Pass Details

Date: 02 May 2024
Orbit: 509 x 3233 km, 33.3° (Epoch: 23 May)

Event Time Altitude Azimuth Distance (km) Brightness Sun altitude
Rises 21:13:43 0° 176° (S) 6,310 11.3 -12.8°
Reaches altitude 10° 21:21:24 10° 153° (SSE) 5,780 10.9 -13.9°
Enters shadow 21:21:46 10° 152° (SSE) 5,767 10.9 -14.0°
Exits shadow 21:38:57 - 99° (E) 6,404 11.2 -16.4°
Sets 21:44:57 0° 85° (E) 7,070 11.5 -17.2°
